Redmond, OR

8:49 PM PDT on October 23, 2019 (GMT -0700)
Roberts Field Airport

Weather History for KRDM - July, 2019

Change the Weather History Date:

Saturday, July 27, 2019

  Actual Average Record
Temperature  
Mean Temperature 68 °F 68 °F  
Max Temperature 87 °F 88 °F 103 °F (1968)
Min Temperature 49 °F 47 °F 38 °F (1986)
Degree Days  
Heating Degree Days 0 1  
Month to date heating degree days 33 64  
Since 1 June heating degree days 182 281  
Since 1 July heating degree days 33 64  
Cooling Degree Days 3 4  
Month to date cooling degree days 64 84  
Year to date cooling degree days 92 113  
Since 1 June cooling degree days 92 108  
Growing Degree Days 20 (Base 50)    
Moisture  
Dew Point 45 °F    
Average Humidity 45    
Maximum Humidity 66    
Minimum Humidity 24    
Precipitation  
Precipitation 0.00 in 0.02 in 0.02 in (1983)
Month to date precipitation 0.22 0.48  
Year to date precipitation 7.46 5.16  
Sea Level Pressure  
Sea Level Pressure 30.14 in    
Wind  
Wind Speed 7 mph (WNW)    
Max Wind Speed 20 mph    
Max Gust Speed 23 mph    
Visibility 10 miles    
Events      
T = Trace of Precipitation, MM = Missing Value Source: NWS Daily Summary

Daily Weather History Graph

Daily Weather History Graph

Search for Another Location

Airport or City:

Astronomy

Jul. 27, 2019 Rise Set
Actual Time 5:46 AM PDT 8:35 PM PDT
Civil Twilight 5:12 AM PDT 9:08 PM PDT
Nautical Twilight 4:29 AM PDT 9:51 PM PDT
Astronomical Twilight 3:39 AM PDT 10:40 PM PDT
Moon 1:37 AM PDT (7/27) 4:32 PM PDT (7/27)
Length of Visible Light 15h 55m
Length of Day
14h 48m
Waning Crescent, 23% of the Moon is Illuminated
Jul 27
Waning Crescent
Jul 31
New
Aug 7
First Quarter
Aug 15
Full
Aug 23
Last Quarter

Hourly Weather History & Observations

Time (PDT) Temp. Dew Point Humidity Pressure Visibility Wind Dir Wind Speed Gust Speed Precip Events Conditions
12:56 AM 63.0 °F 42.1 °F 46% 30.09 in - Calm Calm - N/A   Clear
1:56 AM 55.0 °F 41.0 °F 59% 30.11 in - Calm Calm - N/A   Clear
2:56 AM 54.0 °F 41.0 °F 62% 30.12 in - Calm Calm - N/A   Clear
3:56 AM 53.1 °F 41.0 °F 64% 30.12 in - Calm Calm - N/A   Clear
4:56 AM 54.0 °F 42.1 °F 64% 30.13 in 10.0 mi South 5.8 mph - N/A   Clear
5:56 AM 53.1 °F 41.0 °F 64% 30.15 in 10.0 mi West 5.8 mph - N/A   Clear
6:56 AM 59.0 °F 44.1 °F 58% 30.17 in 10.0 mi Calm Calm - N/A   Clear
7:56 AM 66.9 °F 45.0 °F 45% 30.17 in 10.0 mi SE 4.6 mph - N/A   Clear
8:56 AM 71.1 °F 45.0 °F 39% 30.17 in 10.0 mi Variable 4.6 mph - N/A   Clear
9:56 AM 75.0 °F 45.0 °F 34% 30.17 in 10.0 mi Variable 3.5 mph - N/A   Clear
10:56 AM 79.0 °F 45.0 °F 30% 30.16 in 10.0 mi Variable 4.6 mph - N/A   Clear
11:56 AM 81.0 °F 46.9 °F 30% 30.15 in 10.0 mi Variable 3.5 mph - N/A   Clear
12:56 PM 82.9 °F 46.0 °F 27% 30.15 in - Variable 6.9 mph - N/A   Clear
12:57 PM 82.4 °F 46.4 °F 28% 30.22 in 10.0 mi Variable 6.9 mph - N/A   Clear
1:56 PM 84.9 °F 46.0 °F 26% 30.13 in 10.0 mi NNW 16.1 mph 23.0 mph N/A   Clear
2:56 PM 87.1 °F 46.0 °F 24% 30.13 in - WNW 13.8 mph 21.9 mph N/A   Clear
3:56 PM 87.1 °F 46.9 °F 25% 30.12 in 10.0 mi NW 12.7 mph - N/A   Clear
4:56 PM 86.0 °F 46.9 °F 26% 30.11 in 10.0 mi NW 13.8 mph 21.9 mph N/A   Clear
5:04 PM 86.0 °F 46.9 °F 26% 30.18 in 10.0 mi WNW 16.1 mph - N/A   Clear
5:56 PM 84.9 °F 48.0 °F 28% 30.11 in 10.0 mi WNW 15.0 mph 23.0 mph N/A   Clear
6:56 PM 81.0 °F 48.9 °F 33% 30.11 in 10.0 mi NW 13.8 mph - N/A   Clear
7:56 PM 78.1 °F 50.0 °F 37% 30.10 in 10.0 mi NNW 9.2 mph 16.1 mph N/A   Clear